Location: Ajisawe
(8.4333°N, 4.3833°E)
Time: 09:28:57
(UTC+00:00)

Vanguard 2 Rocket - Pass Details

Date: 22 April 2021
Orbit: 553 x 3326 km, 32.9° (Epoch: 07 May)

Event Time Altitude Azimuth Distance (km) Brightness Sun altitude
Rises 17:09:39 0° 306° (NW) 7,309 12.9 9.4°
Reaches altitude 10° 17:15:21 10° 313° (NW) 6,246 12.3 8.0°
Maximum altitude 17:33:07 41° 18° (NNE) 3,513 9.9 3.7°
Drops below altitude 10° 17:45:12 10° 85° (E) 4,373 9.8 0.8°
Sets 17:48:19 0° 92° (E) 5,027 10.0 0.0°
